Location: Newark
(39.9581°N, 97.2014°W)
Time: 06:21:22
(UTC+00:00)

Envisat - Pass Details

Date: 19 January 2020
Orbit: 764 x 766 km, 98.1° (Epoch: 27 February)

Event Time Altitude Azimuth Distance (km) Brightness Sun altitude
Rises 01:06:47 0° 192° (SSW) 3,218 6.5 -18.1°
Reaches altitude 10° 01:09:19 10° 202° (SSW) 2,296 5.9 -18.6°
Maximum altitude 01:13:46 31° 264° (W) 1,326 4.9 -19.4°
Drops below altitude 10° 01:18:16 10° 326° (NW) 2,311 5.8 -20.3°
Sets 01:20:50 0° 337° (NNW) 3,242 6.4 -20.7°
